Regional Weather Roundup
Issued by NWS

Home | Current Version | Previous Version | Text Only | Print | Product List | Glossary On
Versions: 1 2 3 4 5 6 7 8 9 10 11 12 13 14 15 16 17 18 19 20 21 22 23 24 25 26 27 28 29 30 31 32 33 34 35 36 37 38 39 40 41 42 43 44 45 46 47 48 49 50
000
ASUS43 KDTX 210610
RWRMI
MICHIGAN HOURLY REGIONAL WEATHER ROUNDUP
NATIONAL WEATHER SERVICE DETROIT/PONTIAC MI
200 AM EDT SAT OCT 21 2017

NOTE: "FAIR" INDICATES FEW OR NO CLOUDS BELOW 12,000 FEET WITH NO
SIGNIFICANT WEATHER AND/OR OBSTRUCTION TO VISIBILITY.

MIZ047>049-052>055-059>063-066>070-074>076-081>083-210700-
SOUTHEAST LOWER MICHIGAN

CITY           SKY/WX    TMP DP  RH WIND       PRES   REMARKS
ADRIAN         CLEAR     51  48  89 S3        30.17S
6HR MIN TEMP:  51; 6HR MAX TEMP:  63;

ALMA           CLOUDY    58  51  76 SE5       30.11S
ANN ARBOR      CLEAR     43  43 100 CALM      30.16S
BAD AXE        CLEAR     53  45  74 S7        30.14S
CARO           CLEAR     58  48  67 S6        30.13R
DETROIT CITY   CLEAR     57  46  66 S5        30.17R
6HR MIN TEMP:  56; 6HR MAX TEMP:  62;

DETROIT        MOCLDY    56  47  71 CALM      30.18R
6HR MIN TEMP:  54; 6HR MAX TEMP:  62;

FLINT          CLEAR     61  50  67 S9        30.14S
6HR MIN TEMP:  57; 6HR MAX TEMP:  64;

GROSSE ILE     CLEAR     59  53  80 S6        30.17R
6HR MIN TEMP:  58; 6HR MAX TEMP:  63;

HILLSDALE      CLOUDY    57  48  72 S6        30.16S
HOWELL         CLEAR     59  50  73 S3        30.15S
6HR MIN TEMP:  53; 6HR MAX TEMP:  66;


CITY           SKY/WX    TMP DP  RH WIND       PRES   REMARKS
JACKSON        CLEAR     59  49  69 S8        30.15S
6HR MIN TEMP:  53; 6HR MAX TEMP:  65;

LAMBERTVILLE   CLEAR     55  47  74 S3        30.17R
6HR MIN TEMP:  55; 6HR MAX TEMP:  64;

LANSING        PTCLDY    57  48  72 S7        30.13S
6HR MIN TEMP:  57; 6HR MAX TEMP:  66;

LAPEER         FAIR      47  45  93 CALM      30.15S
6HR MIN TEMP:  47; 6HR MAX TEMP:  60;

MASON          CLOUDY    58  50  75 S6        30.14S
MONROE         CLEAR     56  44  64 CALM      30.16R
MT. CLEMENS    PTCLDY    50  50 100 CALM      30.15S
6HR MIN TEMP:  50; 6HR MAX TEMP:  56;

PONTIAC        CLEAR     51  47  86 CALM      30.16S
6HR MIN TEMP:  50; 6HR MAX TEMP:  62;

PORT HOPE        N/A     61  47  59 SW6       30.11R
6HR MIN TEMP:  61; 6HR MAX TEMP:  67;

PORT HURON     CLEAR     46  43  87 CALM      30.17S
TRI CITIES     PTCLDY    58  52  80 S7        30.13R
6HR MIN TEMP:  57; 6HR MAX TEMP:  67;

MIDLAND        FAIR      56  50  78 CALM      30.11R
6HR MIN TEMP:  56; 6HR MAX TEMP:  67;

TROY           CLEAR     54  46  75 CALM      30.18S
SAGINAW HB     CLEAR     54  48  82 S5        30.12R
$$
MIZ043>046-050>051-056>058-064>065-071>073-077>080-210700-
SOUTHWEST LOWER MICHIGAN

CITY           SKY/WX    TMP DP  RH WIND       PRES   REMARKS
BATTLE CREEK   MOCLDY    59  50  72 S10       30.13S
6HR MIN TEMP:  59; 6HR MAX TEMP:  66;

BENTON HARBOR  CLOUDY    62  47  57 S7        30.10S
6HR MIN TEMP:  61; 6HR MAX TEMP:  68;

BIG RAPIDS     CLOUDY    51  48  90 CALM      30.09S
6HR MIN TEMP:  50; 6HR MAX TEMP:  61;

COLDWATER      CLOUDY    58  49  70 S6        30.14S
6HR MIN TEMP:  51; 6HR MAX TEMP:  62;

FREMONT        FAIR      59  50  71 S3        30.08R
HOLLAND        CLOUDY    54  48  80 S6        30.10R
6HR MIN TEMP:  54; 6HR MAX TEMP:  65;

GRAND RAPIDS   CLOUDY    59  51  75 S7        30.10R
6HR MIN TEMP:  58; 6HR MAX TEMP:  64;

IONIA          FAIR      54  49  84 CALM      30.11R
6HR MIN TEMP:  52; 6HR MAX TEMP:  66;

KALAMAZOO      PTCLDY    57  47  69 S5        30.13R
6HR MIN TEMP:  55; 6HR MAX TEMP:  67;

LUDINGTON      MOCLDY    67  49  52 S15G26    30.04S
6HR MIN TEMP:  62; 6HR MAX TEMP:  68;

MARSHALL       CLOUDY    58  49  71 S6        30.13S
6HR MIN TEMP:  58; 6HR MAX TEMP:  64;

MOUNT PLEASANT CLOUDY    61  50  69 CALM      30.10R
6HR MIN TEMP:  54; 6HR MAX TEMP:  68;

MUSKEGON       CLOUDY    66  50  56 S14G20    30.08R
6HR MIN TEMP:  59; 6HR MAX TEMP:  68;

SOUTH HAVEN    PTCLDY    60  49  65 CALM      30.10R
$$
MIZ016>042-210700-
NORTHERN LOWER MICHIGAN

CITY           SKY/WX    TMP DP  RH WIND       PRES   REMARKS
ALPENA         CLEAR     46  44  93 CALM      30.07S
6HR MIN TEMP:  45; 6HR MAX TEMP:  62;

BEAVER ISLAND  PTCLDY    66  51  58 SW12G23   30.01S
6HR MIN TEMP:  65; 6HR MAX TEMP:  66;

BELLAIRE       CLOUDY    49  47  95 CALM      30.05R
6HR MIN TEMP:  47; 6HR MAX TEMP:  63;

CADILLAC       PTCLDY    58  48  68 S3        30.08S
CHARLEVOIX     CLOUDY    60  49  68 SE3       30.06R
FRANKFORT      CLOUDY    69  51  51 S13G22    30.03R
GAYLORD        CLOUDY    57  47  69 SW6       30.07S
6HR MIN TEMP:  55; 6HR MAX TEMP:  66;

GRAYLING       PTCLDY    57  47  71 S6        30.09R
6HR MIN TEMP:  52; 6HR MAX TEMP:  67;

HARBOR SPRINGS CLOUDY    63  49  59 SW6       30.04R
HOUGHTON LAKE  CLOUDY    48  45  89 E3        30.10R
6HR MIN TEMP:  48; 6HR MAX TEMP:  65;

MANISTEE       MOCLDY    52  49  89 E3        30.04R
OSCODA         CLEAR     58  50  76 SW7       30.09S
6HR MIN TEMP:  53; 6HR MAX TEMP:  65;

PELLSTON       CLEAR     66  50  56 S9G18     30.03S
6HR MIN TEMP:  65; 6HR MAX TEMP:  70;

ROGERS CITY    CLEAR     61  49  65 SW10      30.05S
TRAVERSE CITY  CLOUDY    69  49  48 VRB6      30.03R
6HR MIN TEMP:  67; 6HR MAX TEMP:  70;

$$
MIZ007>008-015-210700-
EASTERN UPPER MICHIGAN

CITY           SKY/WX    TMP DP  RH WIND       PRES   REMARKS
KINROSS        CLOUDY    59  50  72 S5        30.02S
6HR MIN TEMP:  57; 6HR MAX TEMP:  62;

MACKINAC ISLAN CLEAR     64  49  57 S8        30.02S
6HR MIN TEMP:  56; 6HR MAX TEMP:  67;

NEWBERRY       CLEAR     58  56  92 S12       29.99S
6HR MIN TEMP:  56; 6HR MAX TEMP:  58;

S. S. MARIE    PTCLDY    53  50  89 E3        30.02R
6HR MIN TEMP:  53; 6HR MAX TEMP:  64;

MUNISING         N/A     61  54  77 S8        29.93S
6HR MIN TEMP:  59; 6HR MAX TEMP:  63;

$$
MIZ004>006-011>014-085-210700-
CENTRAL UPPER MICHIGAN

CITY           SKY/WX    TMP DP  RH WIND       PRES   REMARKS
MANISTIQUE     PTCLDY    55  49  81 CALM      29.99S
6HR MIN TEMP:  54; 6HR MAX TEMP:  56;

ESCANABA       CLOUDY    58  55  90 S5        29.95F
6HR MIN TEMP:  57; 6HR MAX TEMP:  59;

MENOMINEE      CLOUDY    64  50  60 SW10      29.95F
6HR MIN TEMP:  56; 6HR MAX TEMP:  64;

SAWYER-GWINN   CLOUDY    56  49  76 S13       29.93S
6HR MIN TEMP:  55; 6HR MAX TEMP:  64;

$$
MIZ001>003-009>011-084-210700-
WESTERN UPPER MICHIGAN

CITY           SKY/WX    TMP DP  RH WIND       PRES   REMARKS
IRON MOUNTAIN  CLOUDY    60  45  57 S9        29.92S
6HR MIN TEMP:  57; 6HR MAX TEMP:  66;

HOUGHTON       PTCLDY    62  43  49 S6        29.83S
6HR MIN TEMP:  61; 6HR MAX TEMP:  71;

COPPER HARBOR    N/A     63  45  51 SW8       29.82R
6HR MIN TEMP:  63; 6HR MAX TEMP:  68;

IRONWOOD       CLOUDY    66  44  45 S13       29.81R
6HR MIN TEMP:  66; 6HR MAX TEMP:  70;

$$

ABBREVIATIONS USED IN REMARKS
   TC - TEMPERATURE IN CELSIUS
  WCI - WIND CHILL INDEX
   HX - HEAT INDEX
  VSB - VISIBILITY





USA.gov is the U.S. government's official web portal to all federal, state and local government web resources and services.